BEIDOU-3 G2 (C60)

Last updated on Mon Jun 22 2026 00:03:31 GMT+0000 (Coordinated Universal Time)

1 45344U 20017A 26172.54859609 -.00000143 00000+0 00000+0 0 9991 2 45344 2.8738 47.4324 0002144 33.8499 106.0376 1.00271742 23306
UTC large
Height (km)
Speed (km/s)
/
Latitude / Longitude
Inclination (degrees)
Orbital Period (minutes)
Azimuth
Elevation
Range (km)
Doppler Factor

Next 0 passes for location: London (51.5072 / 0.1276)

No passes found over London.
BEIDOU-3 G2 (C60)